Wind_Speed
5 6 6 9 12 12 12 11 9 6 7 9 7 5 6 6 5 4 4 5 1 3 5 8 8 9 14 14 9 9 6 4 8 9 10 10 9 9 9 10 10 10 11 16 23 25 23 22 23 23 25 26 28 30 31 32 34 35 35 35 36 38 37 36 36 36 36 37 36 36 37 38 38 37 36 36 37 37 37 36 35 35 35 34 33 32
5 8 12 15 14 12 13 11 9 7 7 7 7 6 5 6 5 5 5 4 0 4 4 4 6 9 12 13 11 8 7 7 10 12 13 12 11 10 11 12 12 10 10 13 18 23 24 23 23 23 23 25 27 29 31 32 34 35 35 36 38 38 37 38 40 39 39 40 39 38 39 40 40 38 37 38 38 38 38 38 37 37 36 35 34 33
5 9 18 15 10 9 10 10 9 7 6 6 5 5 4 4 2 4 4 2 1 3 3 4 5 8 10 13 12 9 9 9 11 14 14 12 11 12 12 12 12 12 11 11 14 19 22 23 23 22 23 25 28 29 30 32 33 34 35 38 39 38 38 40 41 40 41 42 41 40 38 37 37 36 37 38 37 37 38 37 37 37 36 36 36 35
7 13 16 10 9 10 8 8 9 6 4 4 4 5 3 3 3 3 3 2 1 2 2 4 6 8 8 10 12 11 10 10 11 14 14 12 12 15 14 11 12 13 12 12 13 15 19 20 20 22 24 25 27 29 30 31 33 35 37 39 39 39 40 40 41 42 43 41 38 37 34 32 31 31 32 33 34 36 36 36 37 37 37 36 37 36
12 10 8 11 11 12 9 7 10 7 4 4 6 7 5 5 7 5 2 0 1 2 2 3 7 9 8 10 13 10 10 11 12 12 14 13 13 13 12 12 12 11 12 13 14 15 16 19 21 23 25 25 26 29 32 33 34 36 38 38 39 40 40 41 41 42 41 38 35 33 30 27 25 26 27 28 32 36 36 37 38 38 37 37 37 37
14 7 12 14 11 10 9 9 11 10 7 4 6 8 7 8 7 4 2 2 2 3 3 3 4 7 5 9 12 7 6 9 9 10 14 15 14 13 11 13 13 12 12 13 15 16 17 21 23 24 24 25 27 31 33 34 35 36 37 37 38 39 40 41 41 40 39 38 36 33 31 29 28 28 30 34 39 40 40 40 39 38 37 37 37 37
7 8 14 15 10 11 11 9 9 11 8 5 5 7 8 9 8 6 5 3 1 4 3 2 2 6 5 7 9 6 7 9 8 9 12 13 13 13 11 12 12 12 13 13 14 16 17 22 22 22 25 27 30 35 34 33 34 36 36 36 37 38 40 40 40 39 39 39 38 37 38 38 36 35 38 42 43 41 39 39 38 38 38 37 38 38
8 12 12 13 12 12 11 9 10 12 8 5 6 11 9 8 7 6 6 3 2 3 3 2 2 6 10 7 7 9 11 12 10 10 11 11 12 13 12 11 12 13 13 11 13 14 15 19 21 23 28 30 32 35 32 32 34 35 36 36 37 37 38 39 38 38 39 40 41 41 41 40 39 40 42 42 40 37 36 36 37 38 38 38 38 38
10 16 16 17 13 10 11 9 10 13 7 4 8 12 9 8 7 5 5 3 0 1 4 3 3 4 11 6 2 6 11 13 10 9 12 12 13 14 15 14 13 13 12 10 12 13 14 19 23 25 28 29 31 32 31 32 34 34 34 35 36 37 38 37 37 37 39 41 41 41 41 40 40 42 41 37 33 33 34 35 37 37 38 39 39 39
4 11 14 16 12 10 11 9 13 15 7 4 8 9 6 6 5 4 5 4 2 1 9 9 6 4 12 8 3 4 7 10 7 7 10 13 14 15 15 15 12 9 9 10 11 13 16 22 25 24 24 27 29 29 30 32 32 32 33 33 35 37 38 37 37 38 39 41 41 41 40 40 40 40 38 33 30 31 32 34 36 37 38 38 39 39
2 1 6 8 7 8 8 9 12 13 9 7 7 8 6 4 4 2 2 3 2 5 14 13 10 7 10 7 4 5 5 7 6 6 8 10 12 13 12 12 10 8 7 8 9 12 18 24 26 24 24 27 28 27 27 29 31 32 32 33 35 37 37 37 37 38 39 40 41 42 41 41 41 39 35 32 32 33 33 35 37 37 38 38 39 39
3 1 4 4 4 8 9 6 4 7 11 9 6 6 5 2 2 2 2 2 5 9 12 9 9 9 10 6 1 3 4 4 6 6 7 9 11 11 10 9 8 7 7 7 8 10 13 16 20 21 23 27 27 25 27 29 30 31 32 32 34 35 36 36 36 37 39 39 40 42 42 42 43 40 36 35 36 36 36 37 38 36 36 37 38 38
3 2 2 2 5 12 12 6 3 5 9 7 6 7 6 3 3 4 4 5 7 8 4 6 9 7 12 13 9 9 8 6 6 7 7 9 9 9 9 8 7 6 7 7 8 9 9 9 12 15 19 23 24 25 28 29 29 29 31 31 33 35 35 35 36 37 38 39 41 42 42 43 43 40 38 38 39 39 38 39 38 36 37 37 37 38
5 2 1 2 4 10 14 10 6 6 9 10 10 9 8 6 5 7 6 4 7 8 2 6 7 2 8 13 13 15 15 15 15 12 10 10 10 10 9 9 8 8 8 8 7 9 9 9 11 13 17 20 22 25 26 27 27 28 29 30 32 36 35 34 36 37 38 40 41 42 43 43 42 40 40 41 41 40 40 40 39 39 38 38 38 40
9 6 6 8 5 10 15 14 11 9 10 12 10 8 8 7 5 6 6 6 7 4 1 4 4 3 6 5 4 6 7 10 11 10 10 12 12 12 11 11 11 11 11 9 9 10 11 12 13 14 18 21 23 24 23 23 25 25 28 29 32 35 35 34 35 36 38 40 41 41 42 42 41 41 41 41 42 41 40 39 39 39 39 39 40 41
9 7 7 8 5 11 15 12 12 11 7 6 5 7 9 8 6 3 3 6 5 1 2 4 3 5 6 7 7 4 3 4 5 5 7 10 11 11 10 11 11 11 11 10 10 11 13 14 14 16 19 22 23 22 21 22 22 23 26 28 30 33 33 32 34 35 36 38 39 39 40 41 41 40 39 40 41 41 40 39 39 39 39 40 41 40
5 4 4 7 6 14 14 11 13 12 8 5 5 8 6 4 5 3 1 2 4 2 4 4 4 6 7 12 13 11 10 7 7 7 9 9 8 8 8 9 10 10 11 11 10 11 11 11 13 17 20 22 23 22 22 23 23 22 24 26 28 29 29 30 33 34 35 36 37 38 39 40 40 40 40 41 42 41 40 38 38 38 39 39 39 38
4 1 1 5 7 10 7 8 10 8 5 6 8 8 3 2 2 2 2 1 3 4 4 5 10 7 6 8 5 4 8 5 6 9 10 8 7 8 9 10 11 12 12 11 10 10 9 8 11 17 21 23 24 24 24 24 22 21 22 23 25 26 27 29 31 32 34 35 36 37 38 39 40 41 42 43 42 40 38 38 38 38 38 39 39 38
4 1 3 4 6 4 4 7 7 5 1 2 4 6 5 1 2 3 3 3 4 5 3 5 9 7 7 9 6 3 5 2 3 5 6 7 9 10 12 13 14 12 10 10 10 9 7 7 12 18 21 22 21 22 24 24 22 22 22 22 23 25 26 27 28 31 33 34 35 36 38 39 40 41 42 42 41 39 37 38 39 39 40 40 38 38
3 3 3 2 3 5 5 5 8 6 2 1 1 5 4 2 3 5 5 3 4 5 4 4 6 5 7 10 11 11 8 5 6 5 5 9 11 10 11 11 11 11 10 9 8 7 6 7 14 18 18 18 19 20 22 22 22 22 22 21 22 24 25 25 27 29 31 33 35 36 37 38 39 40 40 40 39 38 38 40 40 40 40 39 38 38
2 3 3 1 1 5 6 6 10 12 8 5 5 6 5 3 1 1 3 3 3 4 5 5 6 6 5 6 9 10 8 8 9 8 8 9 10 10 10 10 10 11 10 6 4 6 6 8 14 17 16 16 17 18 19 20 21 19 18 20 21 23 24 26 27 29 30 32 33 34 35 36 36 36 37 37 37 37 39 40 40 40 39 38 38 38
2 2 4 3 2 5 4 2 5 8 9 9 9 9 11 9 4 3 5 4 2 4 4 4 8 8 4 4 5 6 7 7 8 7 7 8 9 11 10 11 12 11 7 4 4 6 6 7 13 16 17 17 17 18 19 19 19 19 18 19 20 22 24 25 26 27 28 29 30 32 34 34 34 34 34 35 36 38 39 40 40 39 38 38 39 39
3 3 3 2 3 4 1 1 0 1 3 6 6 6 9 9 7 8 9 5 4 5 3 1 6 8 5 4 5 5 5 5 5 5 6 7 9 9 10 12 12 10 6 4 4 6 5 8 13 16 17 19 19 20 20 19 19 20 19 18 18 21 22 23 23 23 25 27 29 30 32 32 33 34 34 35 36 38 39 39 39 38 37 38 39 38
3 3 3 1 1 2 2 1 1 3 2 2 5 5 6 9 11 9 6 3 4 6 6 3 6 9 7 3 4 4 3 2 4 5 6 7 7 7 10 11 11 10 8 6 4 5 6 9 12 12 14 17 18 19 18 18 18 18 18 17 18 20 20 20 20 20 22 24 26 28 29 31 33 34 34 36 37 38 38 38 38 37 37 37 37 37
3 4 5 3 2 0 1 2 2 2 1 2 5 7 9 11 11 4 2 2 2 5 9 6 6 9 5 2 4 3 3 2 3 4 5 5 6 7 8 9 9 9 11 10 6 5 7 9 9 8 11 15 17 17 15 15 15 16 18 17 18 19 18 18 18 18 20 22 24 26 28 29 31 33 35 36 38 38 38 37 37 36 36 36 36 36
5 5 6 6 6 6 7 6 4 3 2 1 2 6 9 11 12 7 4 5 5 6 9 7 6 9 7 3 2 3 5 5 7 6 6 6 7 7 6 7 8 8 10 12 9 6 7 8 8 8 11 15 17 16 15 14 14 15 17 17 17 18 17 16 15 16 18 21 23 26 28 30 31 32 34 36 37 37 37 36 35 35 35 35 35 35
2 4 8 10 10 10 10 8 4 5 5 4 5 7 8 9 10 8 6 6 3 4 8 7 4 7 12 12 9 3 1 6 9 8 7 6 6 6 6 7 8 7 9 10 9 6 5 8 9 9 12 15 16 16 15 13 13 14 16 17 17 16 16 16 15 16 18 20 23 26 29 31 31 32 33 34 35 36 35 35 35 34 34 35 34 34
4 4 8 11 12 13 12 9 5 6 7 9 9 11 11 10 10 8 7 6 2 1 5 3 3 4 13 15 14 9 6 7 10 10 8 6 5 6 6 7 8 8 9 8 9 7 4 7 9 9 11 15 16 16 14 13 13 14 16 18 17 17 18 18 18 19 20 22 24 27 30 31 31 30 30 31 32 34 34 34 34 34 34 33 34 35
4 6 8 10 12 14 13 8 6 6 6 8 11 13 14 15 16 14 15 14 9 6 7 4 4 6 13 16 19 16 9 9 11 10 6 4 5 6 6 7 8 9 9 9 10 9 6 6 7 8 11 15 16 16 16 16 15 15 16 19 19 20 20 20 20 21 21 23 25 27 29 31 31 29 28 29 30 32 33 33 33 33 32 33 33 34
3 5 7 9 10 12 14 8 5 6 5 6 9 12 12 14 17 17 17 16 14 13 12 10 12 14 15 18 22 16 7 7 7 4 2 3 5 6 6 7 8 9 10 10 10 10 8 6 7 7 9 14 17 18 20 22 20 16 15 17 19 22 22 20 20 21 22 24 26 28 29 30 31 28 27 28 30 31 32 32 32 31 31 32 33 33
1 4 5 6 5 9 11 7 5 7 7 7 8 8 7 9 11 14 14 13 12 13 15 15 14 14 15 18 19 12 3 4 6 5 4 6 7 8 7 8 9 9 9 9 9 10 9 8 7 7 7 11 16 20 23 26 22 16 16 17 19 22 22 21 21 22 24 26 27 28 30 31 30 28 26 27 29 30 30 30 30 30 31 31 31 32
1 2 2 5 4 7 7 7 7 5 5 8 9 7 5 5 7 10 12 13 13 13 15 15 12 13 14 12 11 12 11 13 12 8 7 9 9 9 10 12 11 10 8 9 11 11 12 13 11 9 9 13 18 23 25 23 19 17 19 20 19 20 22 23 23 24 24 25 26 28 30 32 30 28 28 28 28 29 29 28 28 29 30 31 31 30
5 4 1 4 5 6 7 7 6 5 4 7 8 9 10 10 9 10 11 14 15 14 12 12 11 13 13 8 8 16 21 18 12 7 8 10 10 10 12 13 11 8 7 8 9 11 13 14 13 14 16 18 21 23 23 21 18 20 23 23 21 21 21 22 22 23 23 24 26 28 30 31 30 29 29 29 28 28 27 27 28 29 30 30 30 29
6 6 4 4 4 6 6 5 5 5 6 4 8 14 17 16 15 14 13 14 15 12 8 8 9 10 12 11 13 20 22 15 7 5 8 9 8 8 10 10 8 6 6 8 10 13 14 13 14 17 20 24 27 26 24 21 20 23 25 25 23 21 20 20 21 22 24 26 27 30 31 30 29 30 30 29 27 26 26 27 29 30 30 29 28 28
7 6 4 3 2 3 2 5 3 7 5 1 5 12 16 18 18 17 16 16 15 13 11 12 13 12 14 15 14 17 20 12 4 6 9 8 7 7 7 8 7 7 9 11 13 14 13 12 14 18 21 25 26 24 22 22 24 25 26 25 24 21 21 21 22 24 26 27 29 31 31 30 30 30 30 29 27 26 27 28 29 30 29 28 27 28
8 6 3 3 3 2 1 4 6 4 1 2 4 3 5 9 12 13 15 17 17 16 14 15 16 16 16 15 14 17 17 7 2 8 10 7 7 7 7 8 9 11 13 14 12 12 13 15 16 18 20 22 21 21 23 25 25 24 25 25 23 23 23 23 23 25 27 29 30 32 32 31 30 30 30 28 26 26 27 29 30 31 29 28 27 27
8 7 4 3 4 3 4 6 3 3 5 5 5 3 3 7 10 11 11 13 16 16 14 14 15 17 18 17 18 18 11 6 7 13 8 7 9 9 10 12 12 12 12 12 10 11 15 19 19 18 18 19 20 21 23 25 25 24 25 25 24 24 23 22 24 28 29 30 32 33 33 32 30 30 30 28 26 28 29 29 30 30 29 29 29 29
4 6 6 5 5 5 6 5 2 3 7 8 8 6 4 5 8 10 8 9 10 12 14 15 17 19 18 17 18 14 4 4 11 13 4 6 10 10 10 11 8 7 8 11 13 15 18 20 20 20 20 19 21 23 23 23 23 22 23 25 25 24 22 22 26 30 30 31 34 34 33 31 30 30 30 29 30 31 31 30 29 29 28 29 30 31
3 3 4 4 3 4 6 6 5 5 6 8 9 6 3 3 4 6 4 8 8 10 13 15 16 18 17 17 17 11 3 5 12 9 2 4 5 4 5 6 6 7 10 12 12 14 18 20 21 22 23 21 23 24 23 22 22 20 20 24 24 22 21 25 29 32 32 33 35 35 33 30 30 30 30 31 34 34 33 31 29 28 28 29 29 30
4 2 3 4 3 3 5 4 4 4 5 6 6 4 3 4 7 6 5 7 7 10 13 14 16 18 17 15 13 8 7 9 10 6 2 2 4 3 4 5 6 7 10 14 15 15 17 19 19 20 21 22 23 24 24 24 22 18 19 21 20 20 23 28 32 33 34 35 35 34 33 31 31 31 32 34 36 36 33 31 29 28 28 28 29 28
3 2 3 5 5 5 5 4 2 2 5 6 6 6 5 4 6 6 9 6 5 6 5 9 12 11 9 8 5 5 6 6 6 5 5 4 5 5 5 6 9 10 11 14 16 16 17 17 17 17 18 19 21 22 24 24 22 20 20 18 17 21 27 31 33 34 34 35 35 34 34 33 32 33 34 35 35 34 33 31 30 29 28 28 28 27
4 4 3 4 4 3 3 2 1 4 7 8 6 4 3 4 3 8 7 3 4 3 3 2 3 2 1 0 2 4 5 6 6 7 7 6 6 6 7 7 8 11 13 14 14 15 15 15 15 16 17 18 18 20 22 22 22 23 21 17 18 25 30 32 33 33 33 33 34 34 35 34 34 35 36 36 34 32 32 31 30 29 28 27 27 28
7 6 4 5 4 2 2 3 3 6 6 10 9 2 2 5 5 5 5 3 3 6 6 4 3 3 2 2 2 5 5 5 6 6 7 7 6 6 7 8 7 9 12 13 13 14 14 15 15 16 17 17 17 19 20 19 21 23 21 21 25 30 31 32 33 33 32 32 32 34 34 34 35 35 35 35 33 32 31 30 29 28 28 27 27 27
5 6 5 5 5 4 4 7 7 6 5 11 13 7 9 10 5 4 5 3 3 4 5 5 4 4 5 3 3 5 4 5 6 5 5 7 6 5 7 7 7 9 11 13 14 14 14 16 17 18 19 18 18 19 19 18 21 22 21 24 30 32 32 34 34 33 33 33 33 34 34 33 34 34 34 34 32 31 30 29 28 28 28 28 27 26
5 5 5 5 5 5 6 8 7 4 4 7 8 6 6 3 2 5 5 4 3 2 3 5 3 2 4 6 5 4 4 5 6 5 5 6 7 6 7 7 8 10 12 15 18 18 17 18 18 19 21 21 19 18 19 20 20 21 24 27 30 30 31 35 35 34 34 35 34 35 34 33 32 32 32 32 31 31 31 30 29 29 29 29 29 27
3 3 3 4 4 4 5 7 8 6 5 4 4 3 1 3 4 4 4 3 2 4 2 5 4 2 4 5 5 4 5 5 6 6 6 6 8 8 7 7 9 11 14 16 19 21 21 20 19 18 20 24 23 19 21 23 21 22 27 30 29 29 31 32 33 35 36 36 35 35 33 31 30 30 30 31 31 32 32 31 30 30 29 29 29 29
2 3 3 2 4 5 6 10 12 10 6 3 4 6 3 2 0 2 1 2 4 4 3 3 4 5 5 4 4 5 6 6 5 6 6 7 9 10 9 8 9 11 14 16 18 21 21 19 19 19 21 27 27 23 23 26 25 26 30 31 29 29 30 30 31 33 35 35 35 33 31 29 29 29 29 30 30 30 31 30 30 30 29 29 28 27
2 4 4 4 6 6 6 9 7 2 1 3 4 5 3 2 4 5 4 4 3 3 4 5 5 4 3 3 5 6 6 6 6 6 6 6 7 9 9 9 10 12 16 18 19 20 19 17 19 21 23 27 30 27 27 30 30 30 30 30 29 29 29 30 31 31 34 35 34 32 29 28 28 28 28 29 29 30 30 30 30 31 32 34 33 31
2 4 4 4 4 4 9 9 2 3 4 4 5 6 6 6 6 7 5 3 2 2 3 3 4 5 5 5 6 6 6 8 7 6 7 7 7 7 7 9 12 15 18 20 21 21 19 18 20 23 25 29 31 30 30 33 35 33 31 29 28 28 29 31 31 31 32 33 32 30 29 27 27 27 27 27 28 30 32 33 34 34 36 37 37 37
3 4 3 3 5 7 9 6 3 2 4 5 4 5 6 5 5 5 6 6 5 3 1 3 5 6 6 6 6 6 7 9 7 6 7 8 7 8 8 10 13 17 20 22 22 21 20 20 22 24 27 32 33 30 29 33 37 37 33 30 27 27 29 30 30 30 31 30 30 30 28 26 26 26 26 26 26 27 30 33 35 37 36 36 36 37
5 6 5 5 5 6 4 3 4 4 2 3 2 1 1 3 3 4 5 6 8 6 2 3 6 7 8 7 6 7 8 10 8 6 7 9 9 11 13 14 14 17 22 23 21 19 21 22 23 23 27 32 33 30 29 32 36 38 36 32 30 29 29 28 26 27 28 28 29 30 28 26 26 26 25 26 26 25 25 27 31 35 38 37 34 34
Wind_Direction
165 165 191 201 199 192 188 195 188 147 137 157 159 166 176 185 234 235 237 286 205 191 241 226 229 239 252 262 256 259 253 231 259 261 257 258 259 260 258 258 256 252 255 260 264 266 263 259 256 253 251 248 245 243 241 239 238 238 236 233 234 236 233 229 228 228 227 225 226 227 229 232 234 236 237 239 241 243 245 248 249 250 249 249 249 250
180 188 208 209 197 185 186 190 176 147 121 129 154 173 189 196 233 234 225 297 67 183 258 256 247 248 251 262 259 252 256 248 248 252 253 252 254 258 258 260 260 258 262 264 267 267 264 260 256 251 246 241 239 241 238 236 238 238 235 234 237 237 231 229 230 228 227 227 227 228 230 232 233 233 235 238 240 243 246 248 248 249 248 248 248 248
180 210 215 203 176 170 181 183 176 166 130 115 139 154 185 204 246 273 261 300 156 181 266 284 266 256 249 258 259 244 241 244 240 245 249 247 250 254 251 254 258 261 266 265 265 266 263 259 257 251 243 238 238 241 239 236 237 236 234 235 237 235 232 232 231 228 230 231 231 231 232 233 231 233 237 241 244 246 248 248 248 248 247 247 247 247
184 219 211 166 144 165 167 168 164 159 149 137 137 148 192 192 172 252 268 247 182 154 283 285 276 268 252 257 261 241 229 238 239 243 252 246 240 248 250 250 251 253 259 263 263 265 264 259 254 249 245 241 238 237 236 235 234 233 234 235 235 234 233 233 231 230 232 232 231 231 232 234 233 235 240 241 244 246 247 247 247 247 246 246 246 246
204 212 161 142 169 169 148 158 165 170 194 181 176 182 184 173 185 215 238 186 27 6 7 351 296 275 239 238 254 241 220 235 240 240 252 254 244 248 256 256 252 250 251 258 261 263 264 260 255 251 250 246 239 235 235 234 234 235 236 236 236 235 234 233 233 233 231 227 228 228 228 231 233 235 235 235 238 239 240 242 243 244 244 245 246 246
213 180 145 169 177 146 146 173 179 181 189 203 212 199 172 163 184 192 149 102 31 308 332 35 297 277 222 218 244 247 217 229 238 235 243 252 253 249 250 252 250 248 247 250 256 260 262 261 259 255 251 244 239 240 240 238 238 238 238 237 236 235 234 233 233 232 228 223 223 221 218 219 220 222 224 228 233 234 234 237 239 241 243 244 245 246
207 170 169 179 155 146 170 185 186 176 176 218 203 164 151 157 165 160 157 154 184 254 280 79 235 272 274 233 230 237 237 232 228 231 237 244 252 249 242 245 246 246 246 245 250 255 257 259 258 255 251 243 241 246 246 242 240 239 239 238 237 236 235 233 232 230 225 221 221 220 219 219 217 218 224 231 234 234 234 235 237 239 242 243 244 245
172 172 179 174 159 170 185 189 187 172 173 222 163 140 143 150 156 159 151 163 203 254 290 91 126 274 280 258 203 203 233 244 232 230 243 242 247 254 251 244 241 241 242 243 248 250 252 255 253 251 251 248 247 250 247 243 242 241 240 239 238 237 236 234 231 227 224 221 220 220 221 222 222 223 229 234 234 233 234 235 237 239 241 242 243 244
168 179 182 175 171 187 195 185 167 162 177 219 158 148 153 144 143 147 127 128 93 334 274 238 126 262 270 262 172 193 226 244 237 225 241 247 246 252 253 248 240 240 242 242 249 252 252 254 253 252 254 254 253 252 249 247 246 245 243 241 238 237 236 234 231 227 225 224 221 221 221 222 225 228 233 235 235 235 234 235 237 238 239 240 241 242
173 192 184 175 178 194 191 164 156 167 182 185 142 123 122 117 108 121 126 120 82 253 250 235 166 225 270 262 201 191 225 244 242 220 230 241 243 243 249 253 249 245 247 244 247 254 255 256 257 258 259 259 257 255 253 251 249 246 244 241 238 237 236 234 232 228 227 225 222 222 222 224 227 230 232 234 235 236 235 235 236 236 237 238 239 240
332 202 166 174 186 183 159 142 163 169 148 131 112 90 84 71 62 66 92 108 124 237 246 234 178 190 271 275 183 193 221 218 220 230 236 241 247 249 252 259 259 252 251 250 250 255 257 259 261 261 259 259 258 256 253 251 248 246 243 240 238 238 236 233 231 229 227 225 222 223 223 225 228 230 230 230 232 233 233 234 235 235 236 237 238 239
329 96 152 178 162 132 118 118 141 139 134 127 102 110 116 73 63 70 63 147 202 239 246 223 169 183 240 261 148 224 243 204 198 221 239 246 253 256 254 258 262 258 257 255 253 256 259 262 263 259 257 258 259 255 251 249 247 244 242 238 237 238 235 232 230 228 227 224 223 224 225 227 229 230 228 228 231 231 231 232 234 234 235 236 237 237
215 199 167 138 145 140 134 125 92 131 151 140 120 141 153 166 183 189 194 187 211 247 257 159 155 188 240 256 260 257 259 252 230 217 226 242 249 256 261 263 263 253 250 251 250 257 259 257 258 254 255 258 257 254 252 250 247 244 242 238 236 238 236 232 230 228 226 225 225 225 226 228 230 230 229 230 232 232 232 233 233 232 232 233 234 235
182 228 206 129 159 162 153 152 160 168 171 168 162 167 174 180 197 208 208 202 216 242 261 143 152 209 261 266 261 250 249 249 245 239 239 246 251 258 263 262 264 259 252 252 251 256 256 252 250 249 254 258 258 256 254 253 249 245 243 239 237 240 238 232 229 227 226 226 226 227 227 229 229 229 230 230 232 234 234 234 234 234 233 233 235 237
185 215 196 171 178 179 173 175 172 162 173 183 175 174 183 182 198 209 203 207 212 232 253 169 166 194 218 246 242 223 239 249 252 254 251 254 255 256 260 261 265 267 263 259 254 253 255 253 250 250 256 258 259 259 257 254 251 245 244 240 237 240 237 231 229 227 225 226 227 227 228 229 229 230 231 232 234 235 234 235 235 236 236 237 239 241
201 233 191 161 158 176 180 178 160 145 168 195 163 174 199 196 187 188 183 188 178 182 243 209 216 221 231 288 288 237 209 227 245 265 257 255 256 257 262 264 263 265 266 263 257 255 255 254 248 247 253 257 259 259 256 253 250 246 247 244 239 241 238 232 231 228 227 228 228 228 229 230 230 230 231 233 235 236 235 236 236 237 239 240 242 243
202 249 168 140 158 184 183 170 163 162 164 175 180 188 201 188 163 159 199 138 110 187 220 198 239 266 281 291 279 252 248 237 219 238 244 245 260 273 272 264 262 260 257 255 253 254 257 256 250 247 251 256 258 257 255 253 252 251 254 250 245 244 240 235 234 231 230 229 229 229 230 230 231 231 232 234 236 237 237 237 238 239 241 242 243 243
176 293 219 160 174 192 177 145 172 195 156 157 192 183 129 63 112 116 213 154 120 217 230 203 224 239 246 268 286 250 257 249 200 231 252 261 275 277 269 261 257 253 252 258 259 259 261 262 260 257 256 258 260 261 262 262 260 258 258 254 249 246 242 238 236 233 233 231 230 231 231 231 232 232 234 236 237 238 238 238 239 239 241 243 243 244
152 138 275 199 171 165 116 131 179 240 287 144 186 160 128 167 196 167 195 186 173 213 242 216 222 221 213 241 270 242 228 208 210 246 266 265 259 257 260 262 261 260 260 261 260 261 263 259 261 262 264 266 266 267 269 269 266 261 258 254 249 247 247 244 239 237 236 234 232 233 234 234 234 235 236 237 238 238 237 239 240 240 242 243 243 244
136 180 236 216 155 143 136 160 185 199 220 357 131 147 143 186 195 187 197 192 174 202 228 223 219 216 213 233 249 249 236 220 244 257 232 238 245 246 253 261 267 270 264 257 262 270 269 256 259 264 270 276 276 274 272 269 265 260 256 251 246 245 246 243 240 238 237 236 235 235 236 236 237 237 237 238 237 237 238 240 241 241 242 243 243 244
100 188 207 159 138 166 172 195 195 187 183 180 170 169 176 185 176 191 206 189 167 193 215 232 237 234 225 225 232 242 239 218 228 238 231 235 246 251 256 262 266 269 271 282 291 281 276 269 269 272 276 280 281 280 276 269 264 258 249 240 238 239 241 241 239 237 237 237 236 236 237 238 238 239 239 239 239 239 240 241 241 242 242 242 243 244
131 167 180 153 172 188 182 203 202 192 184 185 187 182 186 188 167 192 216 188 166 210 203 221 245 249 241 209 204 216 222 221 223 228 237 246 249 255 262 261 261 266 287 322 304 276 280 277 276 280 283 283 282 279 277 271 261 253 242 236 234 236 239 240 240 239 238 239 238 239 240 241 241 242 242 242 242 241 242 243 243 243 242 242 243 244
106 112 149 167 212 209 169 54 94 204 188 202 215 196 188 188 175 201 222 196 173 217 220 241 259 261 247 190 171 182 198 222 221 200 219 246 249 253 262 267 271 279 300 320 298 286 281 276 281 286 284 279 273 270 271 268 257 247 242 237 234 234 237 239 240 241 240 240 240 242 243 243 244 244 243 243 243 243 243 244 244 243 242 243 244 243
84 113 152 157 277 308 330 323 14 26 66 205 237 218 195 196 194 203 215 171 165 200 205 221 251 261 259 188 142 150 162 215 236 204 216 250 262 263 267 277 287 297 304 301 290 288 284 282 286 286 283 280 276 274 273 269 261 251 244 236 233 236 239 240 241 242 242 241 243 244 244 245 245 244 243 243 243 244 245 245 245 244 243 243 244 243
170 170 171 169 168 260 287 267 289 303 234 207 220 214 210 210 209 205 93 114 199 194 192 207 234 249 261 97 89 51 48 352 274 230 221 243 263 269 272 282 292 302 302 295 287 284 285 289 288 284 285 285 284 286 286 281 271 257 248 241 239 242 244 244 244 245 246 246 247 246 245 245 246 244 243 244 245 246 246 245 245 244 243 243 243 243
186 178 175 187 195 200 208 219 225 208 194 213 222 208 208 207 205 204 200 214 219 182 186 206 228 246 266 281 287 359 17 324 287 259 240 237 251 266 274 280 286 291 291 293 296 290 285 291 292 290 288 284 285 291 294 290 277 262 255 251 248 250 251 250 250 249 249 249 250 250 248 247 246 245 245 246 247 247 247 246 246 245 244 243 242 242
158 192 191 197 208 214 219 225 198 120 134 184 204 204 206 207 207 209 210 214 198 165 198 216 227 256 267 269 270 277 215 269 275 267 261 257 256 268 269 269 276 277 282 292 295 291 291 293 295 294 289 285 286 290 292 288 279 268 262 259 257 258 259 259 257 253 252 252 252 254 254 253 250 248 248 248 249 249 248 248 247 246 245 244 243 242
112 207 203 199 214 224 228 225 178 147 170 185 189 198 203 208 214 223 229 221 178 122 232 240 50 294 274 273 275 268 227 242 265 263 260 258 251 257 264 273 283 283 283 287 287 290 298 294 298 301 296 295 295 293 293 288 281 276 273 271 270 267 265 265 261 258 257 255 254 258 262 261 258 254 252 251 250 250 249 248 247 246 246 245 243 242
136 208 205 198 215 228 233 222 158 152 187 188 193 202 202 202 205 211 225 225 208 212 239 219 161 229 261 268 269 266 246 237 252 254 250 247 250 257 265 277 286 287 291 294 297 305 305 288 289 295 299 303 301 299 300 295 285 279 280 283 283 279 275 270 265 262 259 256 258 264 268 268 264 259 255 252 251 251 250 249 248 246 245 243 243 243
163 203 200 196 213 230 236 227 157 159 196 202 210 213 205 203 202 205 219 223 212 220 233 221 207 221 239 252 261 266 248 222 239 250 239 241 249 253 259 269 276 281 286 290 294 297 292 275 268 277 293 300 301 303 302 293 283 276 280 288 290 287 283 276 269 267 263 261 267 271 272 271 270 264 259 255 253 252 251 249 248 246 244 243 242 242
202 193 177 164 200 236 241 233 186 185 207 222 227 228 218 209 206 210 220 222 214 222 231 230 231 239 242 248 260 272 251 221 246 252 248 251 249 251 262 269 272 279 289 298 301 300 298 288 269 258 259 270 278 280 277 275 277 282 286 288 290 290 288 282 276 270 266 267 271 273 272 273 272 269 264 259 256 253 251 248 246 245 244 243 242 241
135 195 123 126 188 237 234 220 207 190 220 244 239 233 219 204 208 214 217 218 213 214 225 229 233 244 247 254 277 281 260 247 246 241 246 257 256 258 266 269 273 286 303 312 313 311 308 303 292 277 255 244 245 249 257 269 283 293 293 293 295 295 289 282 277 272 269 270 272 272 272 272 271 271 269 263 257 254 251 247 245 242 241 241 240 239
157 177 153 147 192 239 228 204 183 161 225 250 232 220 217 212 217 221 222 225 220 210 215 223 226 240 253 266 280 268 259 254 250 239 237 247 249 250 260 266 274 288 296 297 296 291 288 286 283 278 274 270 267 270 280 290 295 296 297 298 296 292 284 278 274 272 273 275 278 278 276 271 269 271 270 263 257 254 250 245 243 240 239 238 237 236
165 174 191 167 184 235 219 152 125 186 232 230 188 201 213 215 217 224 229 231 227 221 227 240 240 245 253 251 249 256 261 264 263 241 233 237 239 241 252 264 270 265 261 261 262 264 267 270 273 273 275 279 284 290 299 303 302 303 303 300 294 289 284 279 276 276 277 280 281 281 278 273 270 271 269 262 255 252 247 243 241 239 237 236 234 233
165 176 192 165 165 231 183 113 161 222 228 173 181 201 211 216 218 226 236 238 234 231 234 243 247 245 245 248 250 258 266 272 263 243 241 231 224 228 240 258 261 250 252 256 255 260 265 266 269 272 273 279 288 298 309 312 310 307 303 300 298 296 293 288 283 282 281 281 281 280 277 274 273 272 268 259 253 248 244 241 240 237 234 231 230 230
165 178 186 167 179 218 184 183 217 242 322 320 283 256 207 212 216 223 238 241 235 229 225 231 241 244 246 254 255 255 264 288 294 252 244 215 208 224 230 238 240 236 244 251 250 255 264 268 271 276 282 291 301 311 315 313 311 308 303 302 303 301 297 293 287 285 283 282 283 282 280 277 274 271 265 257 250 246 242 239 237 235 231 227 227 228
164 171 175 191 195 203 226 225 235 319 310 275 259 238 178 193 200 206 227 239 233 226 224 227 237 242 243 247 251 255 276 339 299 270 253 191 198 216 224 230 232 235 249 266 277 281 282 286 293 298 302 307 312 314 315 315 315 313 309 307 305 301 298 292 287 286 285 283 285 286 283 279 273 268 262 254 246 244 243 240 237 235 231 226 223 224
159 172 176 194 198 190 217 239 240 250 253 240 231 237 239 213 196 188 210 241 236 222 219 220 227 236 240 243 248 253 293 337 279 278 272 180 199 215 231 244 252 264 281 298 306 305 303 304 308 310 312 314 314 315 319 319 316 314 311 308 306 303 300 292 288 288 287 287 289 290 286 280 273 267 261 252 247 247 245 241 238 236 233 229 226 225
97 124 156 179 198 188 199 221 221 218 236 237 233 247 264 220 160 135 196 243 236 219 215 215 223 231 234 241 246 243 227 252 259 268 254 190 214 235 257 277 293 292 293 299 302 304 307 312 315 315 316 316 314 318 322 318 315 314 308 306 306 304 299 293 293 294 294 295 296 293 288 282 275 268 260 253 252 251 247 242 239 236 234 232 231 230
112 107 147 173 203 202 193 214 228 230 247 238 222 227 232 176 124 128 219 241 224 216 210 204 216 226 227 234 241 228 218 240 256 276 307 260 283 278 250 270 287 289 298 307 312 313 312 312 312 311 312 312 314 318 320 316 314 310 304 305 306 300 296 297 300 302 301 299 298 295 290 284 277 270 263 258 256 253 248 244 240 235 233 232 231 232
143 161 170 181 198 198 196 216 257 260 248 226 204 209 204 130 119 191 225 225 206 222 217 202 217 234 236 239 238 222 233 257 284 313 324 318 314 299 267 274 290 295 298 302 308 312 308 305 304 300 301 308 314 317 318 315 311 307 306 307 302 298 302 306 306 305 303 300 298 295 291 286 279 273 268 263 258 254 249 245 240 236 232 229 228 229
166 170 180 185 181 175 189 201 269 276 243 196 175 204 187 137 175 219 216 186 174 166 90 121 215 262 347 119 191 223 271 307 315 313 315 319 321 311 299 304 310 306 304 304 306 307 299 295 297 295 299 310 316 318 319 314 306 305 307 303 299 305 312 312 309 306 303 300 297 293 290 286 280 275 269 264 258 252 248 245 241 237 233 228 227 226
168 161 180 191 170 134 135 160 201 259 233 159 134 89 238 197 209 208 180 151 141 135 122 121 144 149 121 98 206 231 264 297 295 297 302 299 297 290 289 299 302 297 300 303 305 306 298 292 294 297 304 314 319 320 321 313 301 302 303 300 306 315 316 314 312 309 304 299 294 291 288 284 280 275 268 262 256 250 247 243 238 234 231 227 224 224
173 167 180 195 177 153 171 194 208 228 196 158 154 178 211 206 186 147 156 133 85 123 148 145 159 177 157 147 237 251 252 268 274 274 274 281 289 281 280 293 297 294 299 303 307 311 305 297 300 306 311 316 318 319 319 311 301 298 296 301 312 319 318 316 314 311 305 300 295 290 286 283 279 273 266 259 253 247 243 239 234 230 227 224 221 219
209 188 169 177 182 175 188 210 220 219 200 192 192 203 219 220 81 96 116 96 81 164 162 125 123 184 166 172 211 236 235 255 276 279 273 284 294 290 288 294 296 300 305 307 312 315 312 306 307 310 312 315 316 315 312 309 300 292 293 303 313 316 316 315 314 309 305 302 297 292 289 283 277 271 263 257 250 243 238 233 229 225 222 219 217 215
241 185 139 150 196 230 240 235 236 242 246 254 269 270 286 32 44 67 77 81 166 201 156 110 123 217 222 203 209 230 241 257 281 290 289 294 297 296 296 296 299 306 309 310 314 316 314 312 310 309 309 311 312 312 310 308 301 294 298 306 312 313 314 312 309 306 304 302 298 295 291 284 276 269 261 255 248 242 237 232 226 223 220 216 214 214
274 190 158 155 187 201 229 235 232 231 224 216 271 276 280 53 85 208 203 220 208 198 179 159 181 219 234 222 220 243 259 264 270 282 291 298 299 302 306 305 305 306 303 305 310 311 310 311 312 312 311 310 312 315 312 308 303 301 304 309 312 314 313 309 304 302 301 301 299 296 290 282 274 266 258 251 244 239 236 233 227 224 221 216 213 213
228 171 169 198 195 193 233 243 233 237 246 202 218 252 276 295 265 245 226 220 216 209 216 218 215 218 232 236 225 232 252 254 245 257 274 278 282 292 300 303 302 302 301 303 305 305 302 301 304 307 306 305 308 313 312 308 306 306 308 310 313 315 312 306 302 299 297 297 297 293 286 277 268 260 253 247 241 235 232 230 227 225 224 220 215 212
154 166 183 194 197 234 269 263 241 32 326 262 209 213 230 237 252 269 278 271 251 228 222 237 237 216 214 232 231 235 258 259 242 241 257 265 272 276 281 288 291 292 295 297 298 296 292 290 295 299 298 298 302 307 309 308 308 309 309 309 313 314 308 302 300 298 296 295 294 290 284 276 266 258 251 246 243 239 236 233 228 227 231 230 224 220
158 185 177 138 178 224 251 249 160 117 268 254 212 220 232 210 210 265 299 312 304 293 282 293 283 256 236 230 220 228 261 269 259 252 259 265 272 277 280 285 289 289 289 291 292 290 286 287 292 293 293 295 299 303 305 306 307 308 308 308 310 309 303 299 298 296 294 293 291 287 284 276 267 259 251 246 244 243 243 241 236 232 234 236 233 230
186 191 171 170 213 226 214 173 121 115 209 239 191 191 193 131 160 253 279 287 289 291 284 277 283 283 280 266 226 211 242 266 269 265 268 272 272 276 281 281 280 283 286 288 290 289 288 290 290 288 288 292 296 300 302 302 303 303 304 305 307 305 300 296 291 288 289 290 288 285 281 274 266 259 251 245 242 240 242 245 242 237 235 236 237 237
Height
817 824 827 822 820 821 823 823 825 828 828 833 841 845 847 848 849 847 840 840 843 842 842 841 842 841 832 826 826 825 826 829 827 825 823 821 819 818 816 815 814 812 808 806 805 804 805 807 807 808 809 810 811 812 813 813 814 814 816 817 817 818 820 822 823 824 824 825 826 828 828 829 831 833 835 836 837 839 839 841 842 843 844 846 847 849
817 822 818 811 812 815 820 822 825 829 830 834 840 844 848 849 847 844 841 841 844 844 841 840 841 840 834 828 825 825 826 826 823 820 818 816 815 814 812 811 809 807 804 803 802 801 802 803 803 805 805 806 807 807 808 809 809 811 812 813 812 814 816 817 817 819 819 819 820 821 821 823 826 828 830 831 833 834 836 837 838 839 841 842 844 845
822 818 806 804 810 814 820 823 825 830 833 835 840 844 849 850 848 845 842 841 842 843 840 840 840 837 832 827 822 823 824 821 817 814 811 812 812 810 808 807 806 804 803 801 799 797 798 799 799 801 801 802 802 803 804 805 805 807 808 808 808 810 811 812 813 814 814 815 816 817 818 820 822 824 826 828 829 831 832 833 834 836 837 839 840 841
816 807 799 804 810 815 822 826 828 833 836 836 838 844 847 848 848 845 842 841 842 844 842 840 839 833 828 826 820 818 819 815 812 811 807 808 808 804 802 803 802 801 801 799 796 794 794 795 796 796 796 797 798 799 800 801 801 802 802 802 804 805 806 807 809 810 811 813 815 817 819 820 822 823 824 826 827 827 828 829 830 831 833 834 836 837
802 796 798 805 808 814 824 829 829 833 839 839 835 837 842 844 843 841 841 841 843 847 844 839 838 826 818 820 815 808 812 813 809 810 807 805 803 801 801 800 799 799 798 796 793 791 790 790 791 791 792 793 794 794 794 795 795 795 796 797 799 800 801 803 804 805 808 811 813 816 818 820 821 821 822 822 822 821 822 823 824 825 828 830 831 832
798 795 797 802 809 816 823 827 827 829 836 840 835 832 836 838 839 840 841 841 845 848 844 844 844 826 808 811 810 804 808 810 808 809 807 802 799 799 800 797 795 795 794 793 790 788 787 786 786 787 788 789 788 788 788 789 790 791 792 793 795 796 797 798 800 802 805 807 809 811 813 814 815 815 815 813 812 813 814 816 818 821 823 825 826 827
796 795 795 801 811 815 819 824 823 824 834 840 833 829 833 835 837 840 840 842 848 850 846 847 849 834 812 807 807 803 804 804 805 806 803 801 797 794 794 792 791 791 789 788 786 785 784 782 783 783 783 784 782 781 783 785 786 787 788 790 791 792 793 794 796 798 801 803 804 805 806 806 807 807 806 805 806 808 810 812 814 817 818 820 821 822
790 797 797 801 810 813 816 819 819 821 829 834 828 826 833 835 837 840 840 844 847 847 846 845 848 845 824 805 800 799 800 800 801 803 800 798 796 792 790 788 787 786 784 784 783 781 780 779 779 779 778 779 778 778 781 782 782 782 784 786 787 788 789 791 793 795 796 797 799 800 800 801 802 801 800 801 804 805 807 809 810 812 813 815 816 817
783 793 794 797 806 811 809 810 814 818 824 829 825 824 830 834 837 840 842 845 847 848 849 844 848 850 824 799 800 802 798 797 798 800 798 794 793 789 785 782 781 781 781 781 780 778 777 776 775 775 775 775 775 776 778 778 778 779 780 782 783 784 785 787 789 791 792 793 795 796 797 797 797 797 798 800 802 803 805 806 806 808 809 810 811 812
784 786 786 791 800 803 802 806 811 813 819 824 824 826 831 835 838 842 843 844 849 854 849 840 844 849 819 790 798 805 799 796 795 795 793 788 786 783 779 776 776 778 779 779 778 776 774 772 771 772 772 772 772 773 774 774 775 776 776 778 778 779 780 782 784 786 787 789 791 792 793 794 794 794 797 799 800 801 802 802 802 804 805 806 807 808
787 784 784 789 794 795 799 806 808 808 815 821 825 830 837 840 841 846 846 844 853 854 840 830 836 847 827 789 787 798 794 790 787 788 788 784 782 780 777 775 774 776 776 776 776 773 771 769 768 769 769 768 768 769 770 770 771 772 772 773 773 774 776 777 779 781 782 784 786 787 789 790 790 791 794 796 796 797 798 798 798 799 800 801 802 804
790 789 787 787 788 791 800 809 810 811 815 818 823 830 838 845 846 850 851 850 856 847 827 823 832 846 835 797 785 791 786 784 783 781 781 780 778 777 775 775 774 775 774 773 773 770 768 767 766 766 765 764 765 766 766 766 767 768 768 770 770 770 771 773 775 776 778 780 781 782 784 785 786 788 791 791 791 792 793 793 794 796 797 797 798 800
792 791 788 786 787 787 797 811 817 819 817 817 823 829 839 847 847 849 848 845 846 835 823 824 831 840 827 793 782 786 782 783 782 779 777 775 774 773 773 774 773 773 772 770 769 767 765 764 762 762 762 761 761 761 761 762 763 764 765 766 766 765 767 769 771 772 773 775 776 777 779 780 782 784 786 786 786 787 788 788 790 791 792 793 794 795
792 793 791 792 791 785 787 803 815 817 815 815 818 823 833 840 844 846 842 838 838 830 826 827 831 836 820 788 777 778 775 775 775 774 774 773 773 772 770 771 769 769 768 767 766 764 762 760 758 759 758 757 757 756 757 758 759 761 761 762 762 761 762 764 766 767 768 769 770 772 774 775 777 779 780 781 782 782 783 784 785 786 787 788 789 789
787 788 787 788 787 781 780 787 795 802 807 807 804 811 821 823 828 834 831 830 832 830 832 832 831 827 806 780 774 773 771 771 770 771 772 771 770 769 767 767 766 765 763 762 762 760 757 755 755 756 755 754 753 752 753 754 755 757 757 757 758 757 758 760 761 762 763 764 766 768 770 771 773 775 776 777 777 778 779 780 781 782 783 784 784 784
781 778 776 777 778 777 778 779 783 796 808 807 802 808 812 805 807 817 820 819 822 829 834 830 822 808 782 767 768 771 770 770 769 770 770 769 766 766 766 765 763 762 759 758 757 755 752 751 752 753 751 750 749 749 749 750 751 752 753 753 753 753 755 757 758 758 759 761 763 764 766 767 769 771 772 773 773 774 775 777 777 778 779 780 780 782
782 778 776 778 778 775 775 776 780 787 797 804 805 806 803 796 797 809 818 817 821 829 825 816 813 804 786 769 761 762 765 767 768 766 764 765 765 766 766 763 761 759 755 753 752 750 748 748 750 749 748 747 746 746 746 746 748 749 750 750 750 751 752 754 755 756 757 758 759 761 762 763 765 767 767 768 768 770 771 773 774 775 776 776 777 779
778 780 781 779 780 778 774 777 782 779 782 795 801 797 798 802 801 805 816 822 828 830 815 804 805 805 800 781 760 759 764 764 766 766 763 764 766 765 762 758 756 753 750 749 748 747 746 747 748 746 745 744 744 744 743 743 745 746 747 747 748 748 749 750 751 753 754 755 756 757 758 759 760 761 762 763 764 766 768 769 770 771 772 772 774 775
774 780 783 780 779 780 778 782 789 786 784 789 791 788 796 808 808 808 814 818 824 825 811 799 798 798 796 779 761 760 763 761 764 766 765 764 762 760 756 752 749 747 747 747 745 745 745 745 745 743 742 742 742 743 742 742 743 743 743 744 745 745 745 747 749 749 750 752 752 753 754 755 756 756 758 759 761 763 764 765 766 767 767 768 770 771
772 776 782 781 779 781 784 787 791 791 791 791 791 792 796 801 803 803 801 801 808 814 807 798 794 788 778 765 758 759 760 760 762 762 762 759 754 753 751 748 746 744 742 742 742 743 744 744 743 741 741 740 740 740 739 739 739 738 739 740 740 741 742 743 745 745 746 747 748 749 750 751 752 753 754 755 757 759 759 760 761 762 763 764 766 767
771 774 778 782 783 781 782 782 778 779 786 790 792 796 798 798 800 800 795 793 798 803 802 798 790 774 758 751 753 755 756 757 756 755 756 755 752 751 749 747 745 741 739 740 743 744 743 743 741 739 739 738 737 737 736 736 736 735 735 735 736 737 738 739 740 741 742 743 745 746 747 748 749 750 752 753 754 755 755 756 756 757 759 760 762 763
768 774 774 778 783 779 775 776 773 771 775 779 781 785 786 789 796 801 797 793 794 794 791 792 786 765 748 747 747 747 750 751 752 754 754 753 752 750 748 746 742 739 739 741 743 743 743 741 739 737 737 736 735 734 733 733 732 732 731 731 733 734 734 735 736 737 739 741 743 743 744 746 747 748 749 750 750 750 750 751 752 754 755 756 757 758
763 773 776 776 779 777 777 780 780 776 774 773 775 776 777 781 787 792 791 788 792 791 785 789 787 763 744 744 745 745 749 751 753 755 752 750 750 747 745 743 740 739 741 742 743 743 742 740 737 736 735 733 732 730 729 730 729 729 729 729 730 731 731 732 733 735 736 738 739 740 741 743 743 744 745 746 746 745 746 747 748 750 751 751 753 754
763 771 776 778 779 779 779 779 779 778 777 777 778 777 777 777 776 776 778 781 787 788 786 793 792 766 743 742 747 750 754 754 753 753 750 748 749 749 748 744 742 742 741 742 743 742 740 738 736 735 733 730 728 727 726 727 727 727 727 728 728 728 728 730 732 733 734 735 736 737 738 739 739 740 741 741 741 741 741 743 744 746 746 747 749 750
759 764 768 774 778 779 779 780 779 778 780 780 776 775 775 774 774 777 780 785 788 784 782 789 787 766 746 744 748 751 752 751 750 752 752 749 747 747 748 747 745 743 740 738 739 739 738 736 733 732 730 728 726 725 725 726 726 726 726 726 726 726 727 729 731 732 733 733 734 734 734 734 735 736 736 736 736 736 737 739 740 742 743 744 745 746
751 755 759 766 771 772 769 768 766 768 776 780 776 774 774 774 776 778 780 785 786 780 777 781 777 762 747 745 748 750 750 749 746 747 749 749 746 745 745 746 745 742 738 735 735 737 737 734 732 731 730 728 726 724 724 724 725 725 725 724 725 725 726 728 729 730 730 732 732 732 732 731 730 731 731 732 732 733 734 736 737 738 739 740 741 743
750 750 751 755 756 755 753 752 752 757 767 775 775 775 775 774 774 775 777 779 776 773 772 770 768 763 752 746 748 750 751 749 745 743 744 745 746 745 745 745 743 740 738 735 734 735 736 734 732 731 729 727 725 724 723 723 723 724 724 723 724 725 725 726 727 727 728 728 729 729 728 727 726 726 727 728 729 730 731 732 733 734 735 736 738 739
750 751 750 751 750 746 744 747 751 753 756 762 767 771 774 774 775 778 780 777 774 776 774 768 770 772 761 749 747 749 750 748 744 743 743 743 743 743 743 742 740 738 736 734 733 732 733 732 730 729 728 726 725 723 723 722 722 722 722 722 723 723 723 724 724 724 725 726 726 725 724 724 724 724 724 724 725 726 727 728 729 730 731 732 733 734
746 749 748 749 750 747 744 748 752 751 751 755 757 761 766 771 774 776 774 772 774 777 773 769 775 777 765 752 744 741 744 745 742 740 742 744 743 741 740 738 735 733 732 731 730 728 729 730 729 728 727 725 725 723 722 722 721 721 721 720 721 721 721 721 722 722 722 722 722 722 721 722 722 721 721 721 722 722 723 723 725 726 727 728 729 730
744 744 746 748 751 748 746 750 753 751 751 754 754 754 757 762 766 768 765 765 768 770 765 764 769 766 755 744 734 732 738 741 739 740 743 744 742 739 738 736 733 732 731 730 729 728 728 729 729 728 727 725 724 723 722 722 721 720 719 718 718 718 718 719 719 719 719 719 719 719 719 719 720 718 717 718 718 718 718 719 721 722 723 724 725 726
747 743 743 749 754 751 748 752 756 754 752 753 753 754 756 758 761 763 762 762 766 767 762 761 765 758 744 733 730 732 738 740 739 740 740 739 738 736 735 734 733 733 733 732 731 729 728 727 726 727 726 724 723 723 723 723 721 718 717 716 717 717 717 717 716 716 716 716 717 717 717 717 717 715 713 713 714 714 715 716 717 718 719 720 721 722
751 747 746 749 754 752 746 749 756 758 758 758 757 756 758 759 759 758 756 755 757 760 761 762 764 754 737 731 733 733 733 734 735 738 739 737 735 735 734 732 732 733 734 733 731 729 727 724 722 722 722 721 721 722 721 719 717 715 713 714 715 716 717 716 715 715 714 714 715 715 715 714 714 712 709 709 710 711 711 712 713 714 715 716 717 718
750 749 748 750 753 749 743 746 753 760 763 760 756 755 754 754 754 752 750 748 746 749 754 756 753 743 733 735 737 730 723 725 730 734 736 734 733 733 732 731 732 733 734 733 731 728 725 721 718 717 717 716 715 715 714 713 713 712 712 713 714 714 714 714 714 713 712 712 712 712 711 711 710 708 706 706 707 708 708 709 709 709 710 710 712 714
749 747 746 746 748 745 744 748 754 757 755 743 735 739 742 744 747 748 746 744 742 743 744 743 740 737 734 735 734 726 718 721 727 730 729 728 729 731 730 729 731 732 732 730 727 724 720 717 716 715 715 713 711 710 710 711 711 711 711 711 711 711 711 711 711 710 709 709 709 708 707 707 705 703 702 703 704 705 705 705 704 704 705 706 708 709
747 749 747 746 748 746 745 752 756 750 740 729 724 728 731 733 738 742 741 739 739 740 740 739 737 734 732 730 729 725 718 720 725 726 724 724 726 727 728 728 729 729 726 723 720 718 716 716 714 713 712 710 709 708 709 709 710 710 711 711 710 709 709 709 708 707 707 706 705 704 703 702 700 699 699 700 701 701 701 701 701 701 701 702 703 704
742 748 747 747 749 747 747 755 752 738 728 729 730 731 731 732 736 741 742 736 733 733 735 736 733 731 729 728 726 721 718 721 725 721 718 722 723 724 725 725 724 723 719 715 715 715 714 714 713 712 711 709 708 707 708 708 710 710 710 710 709 708 708 707 706 705 704 702 701 700 699 698 697 696 697 697 698 698 697 697 697 698 699 699 700 702
736 742 746 748 748 746 747 749 743 734 732 731 728 726 728 728 729 734 737 730 724 725 729 731 731 728 726 724 721 718 719 724 724 716 713 718 721 720 719 718 716 716 714 713 714 714 714 714 713 713 712 710 708 706 706 707 708 708 708 708 708 707 706 706 704 702 700 699 697 696 695 694 694 694 694 695 695 694 693 693 694 696 697 697 697 698
736 737 741 744 743 742 747 749 747 746 742 730 720 718 722 723 721 724 731 728 720 719 722 724 725 723 721 721 719 719 724 729 724 715 711 714 715 715 715 714 714 715 714 714 714 714 713 713 713 713 712 710 708 706 705 705 705 705 705 705 705 705 705 704 701 698 697 695 693 693 693 692 692 692 691 692 691 690 689 689 690 693 695 696 694 693
740 739 740 744 744 744 746 747 746 744 734 720 715 719 725 728 723 724 733 730 717 713 716 717 719 719 717 717 716 718 727 731 722 714 712 713 714 715 716 715 715 715 714 713 713 713 713 712 712 712 711 710 708 706 704 703 702 702 703 702 703 703 703 700 697 695 694 692 691 690 691 690 690 689 689 688 687 686 686 687 687 689 691 693 693 691
743 743 744 748 748 746 746 745 741 736 725 717 718 723 728 729 725 728 736 725 706 704 709 710 711 712 710 712 715 718 724 723 716 713 715 716 716 718 718 716 715 714 712 712 712 712 712 712 712 711 711 710 708 706 704 701 699 699 699 699 700 701 699 697 694 693 692 690 688 688 688 688 687 686 685 684 683 683 683 684 684 685 686 688 690 690
745 744 745 745 744 746 748 747 742 733 721 717 720 722 724 727 728 729 726 711 698 701 708 707 708 710 710 713 717 718 718 717 715 716 717 716 716 716 715 715 714 714 713 712 711 711 711 711 710 710 710 709 707 705 703 701 698 696 696 697 697 697 695 693 692 691 690 687 686 685 685 684 683 682 681 680 680 681 681 681 682 682 683 684 686 688
740 741 743 744 746 749 748 746 745 733 714 710 719 721 721 724 724 717 707 700 700 705 709 711 712 713 714 717 719 719 717 716 716 716 714 714 715 715 714 714 714 713 713 712 711 711 710 709 709 708 707 707 705 703 701 700 697 695 693 693 693 692 691 690 689 688 686 685 683 682 681 680 679 678 678 677 677 678 677 678 679 680 681 682 683 685
726 734 741 740 742 749 750 750 748 729 706 703 714 722 721 714 706 698 695 700 706 706 708 711 713 714 714 715 717 718 717 716 716 716 715 715 715 716 715 714 714 713 712 710 710 710 708 707 706 705 704 704 703 701 699 698 696 693 692 690 688 687 687 686 685 684 682 681 680 678 677 676 675 674 674 674 674 674 674 675 676 678 679 680 681 681
717 723 731 729 729 738 743 739 725 707 699 699 701 704 705 699 694 693 694 699 706 707 707 709 710 712 713 713 715 716 716 716 716 716 716 715 715 716 715 713 713 712 710 709 708 707 706 704 702 701 700 700 699 698 697 696 693 691 689 687 685 683 682 681 680 680 678 676 675 673 672 671 670 670 669 670 671 671 671 672 673 674 675 676 677 678
708 709 713 714 713 717 718 712 701 695 698 700 694 692 694 694 698 701 699 701 706 707 706 707 708 711 714 714 714 714 714 714 714 714 715 715 713 713 713 712 711 710 708 707 706 704 703 701 699 697 696 695 695 695 693 692 691 688 686 684 682 681 679 677 676 675 673 672 670 669 667 667 666 665 666 666 667 667 667 668 669 670 670 671 672 673
708 708 707 704 705 708 705 700 698 697 698 699 697 697 699 701 704 705 704 705 708 707 707 709 709 710 712 712 712 712 712 713 713 713 714 713 711 710 710 709 709 708 706 705 703 701 700 698 697 695 692 690 690 690 688 688 687 684 681 680 680 679 677 675 673 671 669 668 666 665 664 662 661 661 661 661 662 662 663 664 665 665 666 667 667 666
710 710 707 703 705 708 701 691 691 694 696 698 699 698 701 705 707 707 705 705 706 707 708 709 708 709 710 710 711 712 712 712 713 712 712 711 709 707 707 706 706 705 704 703 702 700 698 696 693 691 688 684 684 684 684 682 681 680 678 677 676 675 674 672 671 668 666 664 662 661 660 659 657 657 657 657 657 658 659 660 661 662 662 662 662 662
704 705 706 703 702 702 693 685 689 696 698 700 701 700 702 704 703 703 704 705 706 708 708 708 708 709 709 710 711 712 711 711 712 711 711 711 709 707 706 705 704 702 701 701 700 699 697 695 692 689 685 681 679 680 679 676 675 675 674 673 673 672 670 668 667 665 663 661 659 658 657 656 654 653 653 652 652 653 653 655 657 657 655 654 654 655
704 704 703 701 700 700 691 685 691 697 694 695 698 700 701 701 700 700 702 704 705 707 707 708 709 709 709 708 709 709 708 708 709 710 709 708 706 706 706 705 703 701 699 698 698 696 695 693 690 687 683 679 677 677 676 673 670 670 670 669 670 669 667 664 662 661 658 657 655 653 652 651 650 649 648 649 648 648 648 649 650 650 650 649 650 650
704 700 700 702 701 697 689 684 687 691 689 690 693 695 697 700 701 701 701 701 702 703 705 706 706 706 707 707 707 707 706 704 705 707 706 704 703 703 702 702 701 698 696 695 694 693 692 691 689 686 681 676 674 674 673 670 667 666 666 666 666 666 664 661 659 656 653 652 651 648 647 646 645 644 644 645 645 646 646 645 645 645 645 646 647 648
697 693 695 697 693 688 687 688 689 689 690 692 694 694 697 701 702 701 701 701 701 702 705 706 704 703 703 703 704 706 704 701 702 703 703 700 700 699 699 698 698 694 691 691 690 689 688 687 686 683 679 675 672 672 670 668 665 662 662 662 662 662 660 658 656 653 650 648 647 645 643 643 642 641 641 641 642 643 643 643 643 641 640 641 644 645